Monistrol de Calders





Hora UTC 20:10
Temperatura 3.4 ºC
Humitat 82.0 %
Pressió 1001.4 hPa
Pluja 0.0 mm
Velocitat vent 0.0 km/h
Direcció vent E

Dades diàries 2021-11-27



Hora UTC (hivern +1h; estiu +2h)
Temperatura (ºC) Humitat (%) Pressió (hPa) Velocitat vent (km/h) Precipitació (mm)
Hora UTC Aire Humitat Pressió Vel. Dir. Vel. Max Dir. Intent. màx 5 min.
00:05 0.1 90.0 1002.8 0.0 ESE 0.0 0.0
00:10 0.1 91.0 1002.8 0.0 ESE 1.6 0.0
00:15 0.1 91.0 1002.6 0.0 ESE 1.6 0.0
00:20 0.0 91.0 1002.7 0.0 ESE 0.0 0.0
00:25 -0.1 90.0 1002.8 0.0 ESE 0.0 0.0
00:30 -0.2 91.0 1002.5 0.0 ESE 3.2 0.0
00:35 -0.2 91.0 1002.5 1.6 ESE 3.2 0.0
00:40 -0.2 91.0 1002.4 1.6 ESE 4.8 0.0
00:45 -0.2 91.0 1002.4 0.0 ESE 4.8 0.0
00:50 -0.2 91.0 1002.3 0.0 ESE 3.2 0.0
00:55 -0.2 91.0 1002.4 0.0 ESE 3.2 0.0
01:00 -0.3 91.0 1002.3 0.0 ESE 1.6 0.0
01:05 -0.3 91.0 1002.3 0.0 ESE 0.0 0.0
01:10 -0.3 91.0 1002.2 0.0 ESE 0.0 0.0
01:15 -0.4 91.0 1002.3 0.0 ESE 0.0 0.0
01:20 -0.4 91.0 1002.4 0.0 ESE 0.0 0.0
01:25 -0.4 91.0 1002.2 0.0 ESE 0.0 0.0
01:30 -0.4 91.0 1002.0 0.0 ESE 0.0 0.0
01:35 -0.3 91.0 1002.0 0.0 ESE 0.0 0.0
01:40 -0.2 91.0 1001.9 0.0 ESE 0.0 0.0
01:45 -0.2 91.0 1001.6 0.0 ESE 0.0 0.0
01:50 -0.1 91.0 1001.5 0.0 ESE 0.0 0.0
01:55 -0.1 91.0 1001.6 0.0 ESE 0.0 0.0
02:00 -0.1 91.0 1001.6 0.0 ESE 0.0 0.0
02:05 -0.1 91.0 1001.7 0.0 ESE 0.0 0.0
02:10 -0.1 91.0 1001.7 0.0 ESE 0.0 0.0
02:15 -0.1 91.0 1001.7 0.0 ESE 0.0 0.0
02:20 -0.1 91.0 1001.5 0.0 ESE 0.0 0.0
02:25 0.0 91.0 1001.4 0.0 ESE 0.0 0.0
02:30 0.1 91.0 1001.4 0.0 ESE 0.0 0.0
02:30 0.0 91.0 1001.3 0.0 ESE 0.0 0.0
02:35 0.0 91.0 1001.3 0.0 ESE 0.0 0.0
02:40 0.1 91.0 1001.3 0.0 ESE 0.0 0.0
02:45 0.1 91.0 1001.1 0.0 ESE 0.0 0.0
02:50 0.1 91.0 1001.1 0.0 ESE 0.0 0.0
02:55 0.0 91.0 1001.1 0.0 ESE 0.0 0.0
03:00 0.1 91.0 1000.9 0.0 ESE 0.0 0.0
03:05 0.1 91.0 1000.8 0.0 ESE 0.0 0.0
03:10 0.2 91.0 1000.8 0.0 ESE 0.0 0.0
03:15 0.2 91.0 1000.7 0.0 ESE 0.0 0.0
03:20 0.3 91.0 1000.4 0.0 ESE 0.0 0.0
03:25 0.3 91.0 1000.5 0.0 ESE 0.0 0.0
03:30 0.4 91.0 1000.4 0.0 ESE 0.0 0.0
03:35 0.4 91.0 1000.3 0.0 ESE 0.0 0.0
03:40 0.4 91.0 1000.2 0.0 ESE 0.0 0.0
03:45 0.5 91.0 1000.2 0.0 ESE 0.0 0.0
03:50 0.6 91.0 1000.0 0.0 ESE 0.0 0.0
03:55 0.7 91.0 999.9 0.0 ESE 0.0 0.0
04:00 0.7 91.0 999.9 0.0 ESE 0.0 0.0
04:05 0.7 91.0 999.9 0.0 ESE 0.0 0.0
04:15 0.7 91.0 999.9 0.0 ESE 0.0 0.0
04:20 0.7 91.0 1000.0 0.0 ESE 0.0 0.0
04:25 0.8 91.0 1000.0 0.0 ESE 0.0 0.0
04:30 0.8 91.0 999.8 0.0 ESE 0.0 0.0
04:35 0.8 91.0 999.9 0.0 ESE 0.0 0.0
04:40 0.8 91.0 999.9 0.0 ESE 0.0 0.0
04:45 0.8 91.0 999.8 0.0 ESE 0.0 0.0
04:50 0.8 91.0 999.7 0.0 ESE 0.0 0.0
04:55 0.8 91.0 999.7 0.0 ESE 0.0 0.0
05:00 0.8 91.0 999.6 0.0 ESE 0.0 0.0
05:05 0.8 91.0 999.6 0.0 ESE 0.0 0.0
05:10 0.9 91.0 999.5 0.0 ESE 0.0 0.0
05:15 1.0 91.0 999.4 0.0 ESE 0.0 0.0
05:20 1.1 91.0 999.4 0.0 ESE 0.0 0.0
05:25 1.1 91.0 999.3 0.0 ESE 0.0 0.0
05:30 1.3 91.0 999.2 0.0 ESE 0.0 0.0
05:35 1.3 91.0 999.3 0.0 ESE 0.0 0.0
05:40 1.4 91.0 999.2 0.0 ESE 0.0 0.0
05:45 1.6 91.0 999.1 0.0 ESE 0.0 0.0
05:50 1.7 91.0 999.3 0.0 ESE 0.0 0.0
05:55 1.6 91.0 999.1 0.0 ESE 0.0 0.0
06:00 1.7 91.0 999.1 0.0 ESE 0.0 0.0
06:05 1.7 91.0 999.0 0.0 ESE 0.0 0.0
06:10 1.7 91.0 998.8 0.0 ESE 0.0 0.0
06:15 1.8 91.0 999.0 0.0 ESE 0.0 0.0
06:20 1.8 91.0 998.8 0.0 ESE 0.0 0.0
06:25 1.8 91.0 998.8 0.0 ESE 0.0 0.0
06:30 1.9 91.0 998.8 0.0 ESE 0.0 0.0
06:35 1.9 91.0 998.7 0.0 ESE 0.0 0.0
06:40 2.0 91.0 998.8 0.0 ESE 0.0 0.0
06:45 2.1 91.0 998.8 0.0 ESE 0.0 0.0
06:50 2.2 91.0 998.6 0.0 ESE 0.0 0.0
06:55 2.2 91.0 998.6 0.0 ESE 0.0 0.0
07:00 2.2 91.0 998.6 0.0 ESE 0.0 0.0
07:05 2.3 91.0 998.6 0.0 ESE 0.0 0.0
07:10 2.3 91.0 998.7 0.0 ESE 0.0 0.0
07:15 2.4 91.0 998.7 0.0 ESE 0.0 0.0
07:20 2.5 91.0 998.8 0.0 ESE 0.0 0.0
07:25 2.6 91.0 998.8 0.0 ESE 0.0 0.0
07:25 2.7 91.0 998.7 0.0 ESE 0.0 0.0
07:35 2.8 91.0 998.7 0.0 ESE 0.0 0.0
07:40 2.9 91.0 998.6 0.0 ESE 0.0 0.0
07:45 3.0 91.0 998.7 0.0 ESE 0.0 0.0
07:50 3.2 91.0 998.7 0.0 ESE 0.0 0.0
07:55 3.3 91.0 998.7 0.0 ESE 1.6 0.0
08:00 3.4 91.0 998.7 0.0 ESE 1.6 0.0
08:05 3.6 91.0 998.8 0.0 ESE 0.0 0.0
08:10 3.7 91.0 998.9 0.0 ESE 0.0 0.0
08:10 3.7 91.0 998.8 0.0 ESE 0.0 0.0
08:20 3.8 91.0 998.7 0.0 ESE 0.0 0.0
08:25 3.9 91.0 998.8 0.0 ESE 0.0 0.0
08:30 4.0 91.0 998.8 0.0 ESE 0.0 0.0
08:35 4.1 91.0 998.7 0.0 ESE 1.6 0.0
08:40 4.2 91.0 998.7 0.0 ESE 1.6 0.0
08:45 4.3 91.0 998.6 0.0 ESE 0.0 0.0
08:50 4.3 91.0 998.5 0.0 ESE 0.0 0.0
08:55 4.4 91.0 998.4 0.0 ESE 1.6 0.0
09:00 4.5 91.0 998.5 0.0 ESE 1.6 0.0
09:00 4.6 91.0 998.5 0.0 ESE 1.6 0.0
09:05 4.6 91.0 998.6 0.0 ESE 1.6 0.0
09:10 4.7 90.0 998.6 0.0 ESE 1.6 0.0
09:15 4.9 91.0 998.6 0.0 ESE 1.6 0.0
09:20 5.2 91.0 998.6 0.0 W 1.6 0.0
09:25 5.3 90.0 998.6 0.0 SE 1.6 0.0
09:30 5.4 90.0 998.7 0.0 SE 0.0 0.0
09:35 5.6 89.0 998.6 0.0 SE 0.0 0.0
09:40 5.6 89.0 998.7 0.0 SE 0.0 0.0
09:45 5.7 89.0 998.7 0.0 SE 1.6 0.0
09:50 5.7 88.0 998.7 0.0 SE 3.2 0.0
10:00 5.8 88.0 998.8 0.0 WNW 3.2 0.0
10:05 5.8 87.0 998.8 0.0 WNW 3.2 0.0
10:10 5.8 87.0 998.7 0.0 SW 1.6 0.0
10:15 5.9 87.0 998.6 0.0 E 1.6 0.0
10:15 6.0 87.0 998.7 0.0 E 1.6 0.0
10:25 6.1 86.0 998.6 0.0 E 3.2 0.0
10:30 6.1 86.0 998.6 0.0 E 3.2 0.0
10:35 6.2 86.0 998.5 0.0 E 1.6 0.0
10:40 6.3 86.0 998.5 0.0 E 1.6 0.0
10:45 6.4 86.0 998.4 0.0 E 1.6 0.0
10:50 6.6 86.0 998.3 0.0 E 1.6 0.0
10:55 6.7 85.0 998.5 0.0 SW 6.4 0.0
11:00 6.7 84.0 998.4 0.0 WSW 6.4 0.0
11:05 6.8 84.0 998.4 3.2 SSW 8.0 0.0
11:10 6.8 84.0 998.4 0.0 SSW 8.0 0.0
11:15 6.9 83.0 998.4 6.4 W 11.3 0.0
11:20 6.9 83.0 998.4 3.2 SW 11.3 0.0
11:25 6.9 83.0 998.5 6.4 W 12.9 0.0
11:30 6.9 83.0 998.5 11.3 SE 11.3 0.0
11:35 7.0 83.0 998.4 0.0 SW 12.9 0.0
11:40 7.0 83.0 998.4 11.3 SW 12.9 0.0
11:45 7.0 82.0 998.4 1.6 SW 16.1 0.0
11:50 7.1 83.0 998.4 0.0 S 12.9 0.0
11:55 7.1 82.0 998.4 6.4 SSW 9.7 0.0
12:00 7.2 82.0 998.3 11.3 WSW 17.7 0.0
12:05 7.2 82.0 998.2 6.4 WNW 17.7 0.0
12:10 7.2 82.0 998.1 0.0 WNW 14.5 0.0
12:15 7.3 82.0 998.0 0.0 WNW 0.0 0.0
12:20 7.4 83.0 997.9 0.0 WNW 0.0 0.0
12:25 7.6 82.0 997.7 0.0 W 0.0 0.0
12:30 7.8 81.0 997.5 0.0 WNW 0.0 0.0
12:35 8.2 79.0 997.4 0.0 W 16.1 0.0
12:40 8.4 78.0 997.5 0.0 WNW 16.1 0.0
12:45 8.7 77.0 997.4 0.0 NE 14.5 0.0
12:50 8.8 76.0 997.4 1.6 NW 9.7 0.0
12:55 8.8 76.0 997.4 0.0 WSW 11.3 0.0
13:00 8.8 75.0 997.5 3.2 NNW 12.9 0.0
13:00 8.9 75.0 997.4 1.6 NNE 16.1 0.0
13:10 9.1 75.0 997.4 0.0 SE 12.9 0.0
13:15 9.1 74.0 997.4 0.0 WSW 6.4 0.0
13:20 9.2 74.0 997.3 3.2 WNW 9.7 0.0
13:25 9.3 72.0 997.4 8.0 NW 19.3 0.0
13:30 9.4 72.0 997.4 0.0 W 19.3 0.0
13:35 9.6 71.0 997.4 9.7 W 16.1 0.0
13:40 9.9 72.0 997.4 3.2 WNW 12.9 0.0
13:45 10.1 70.0 997.4 0.0 WNW 14.5 0.0
13:50 10.2 70.0 997.4 0.0 WNW 6.4 0.0
13:55 10.0 69.0 997.5 0.0 NW 4.8 0.0
14:00 9.9 70.0 997.6 0.0 SSE 3.2 0.0
14:05 9.8 71.0 997.7 0.0 WNW 3.2 0.0
14:10 9.7 71.0 997.7 0.0 SW 3.2 0.0
14:15 9.5 70.0 997.7 9.7 WNW 11.3 0.0
14:20 9.3 71.0 997.8 0.0 WSW 11.3 0.0
14:25 9.3 71.0 997.9 4.8 WNW 8.0 0.0
14:30 9.2 71.0 998.0 0.0 WSW 11.3 0.0
14:35 9.1 71.0 998.1 0.0 S 11.3 0.0
14:35 8.9 72.0 998.2 0.0 SW 11.3 0.0
14:45 8.8 72.0 998.4 3.2 W 11.3 0.0
14:50 8.7 72.0 998.5 0.0 W 11.3 0.0
14:55 8.7 72.0 998.4 0.0 SSE 3.2 0.0
15:00 8.7 72.0 998.5 0.0 SW 6.4 0.0
15:05 8.6 72.0 998.6 0.0 WSW 11.3 0.0
15:10 8.6 72.0 998.6 0.0 WSW 11.3 0.0
15:10 8.6 72.0 998.6 0.0 WSW 1.6 0.0
15:20 8.5 72.0 998.6 0.0 W 3.2 0.0
15:20 8.5 72.0 998.7 0.0 WNW 3.2 0.0
15:25 8.5 72.0 998.8 0.0 W 0.0 0.0
15:30 8.4 73.0 998.8 0.0 SW 0.0 0.0
15:35 8.4 73.0 998.8 0.0 W 0.0 0.0
15:40 8.3 73.0 998.8 0.0 S 0.0 0.0
15:45 8.3 74.0 998.9 0.0 WNW 11.3 0.0
15:50 8.2 74.0 999.1 0.0 S 11.3 0.0
15:55 8.2 74.0 999.1 0.0 SW 6.4 0.0
16:00 8.1 74.0 999.3 0.0 SSW 6.4 0.0
16:05 8.0 74.0 999.2 3.2 SE 8.0 0.0
16:10 7.9 73.0 999.4 0.0 SW 8.0 0.0
16:15 7.8 74.0 999.3 0.0 WSW 6.4 0.0
16:20 7.8 74.0 999.4 0.0 S 3.2 0.0
16:25 7.7 73.0 999.6 3.2 W 16.1 0.0
16:30 7.6 74.0 999.6 0.0 WNW 16.1 0.0
16:35 7.6 73.0 999.6 0.0 WSW 17.7 0.0
16:40 7.4 73.0 999.7 4.8 WSW 17.7 0.0
16:45 7.4 73.0 999.7 3.2 SW 17.7 0.0
16:50 7.3 73.0 999.7 6.4 W 16.1 0.0
16:55 7.2 72.0 999.7 0.0 W 14.5 0.0
17:00 7.1 72.0 999.6 4.8 ENE 16.1 0.0
17:05 6.9 72.0 999.7 0.0 S 16.1 0.0
17:10 6.9 72.0 999.8 0.0 S 1.6 0.0
17:15 6.8 73.0 999.9 0.0 S 0.0 0.0
17:20 6.7 73.0 1000.0 0.0 WSW 0.0 0.0
17:25 6.7 73.0 1000.0 0.0 ESE 0.0 0.0
17:30 6.6 74.0 999.9 0.0 ESE 0.0 0.0
17:35 6.5 74.0 1000.0 0.0 ESE 0.0 0.0
17:40 6.4 74.0 1000.0 0.0 ESE 1.6 0.0
17:45 6.3 75.0 1000.1 0.0 ESE 1.6 0.0
17:50 6.2 75.0 1000.1 0.0 ESE 0.0 0.0
17:55 6.1 75.0 1000.3 0.0 ESE 0.0 0.0
18:00 5.9 76.0 1000.4 0.0 ESE 0.0 0.0
18:05 5.7 77.0 1000.5 0.0 ESE 9.7 0.0
18:10 5.6 77.0 1000.5 0.0 ESE 9.7 0.0
18:15 5.3 78.0 1000.5 0.0 ESE 0.0 0.0
18:20 5.0 78.0 1000.5 0.0 ESE 1.6 0.0
18:25 4.7 79.0 1000.6 0.0 ESE 1.6 0.0
18:30 4.4 81.0 1000.7 0.0 ESE 0.0 0.0
18:35 4.3 81.0 1000.7 0.0 ESE 1.6 0.0
18:40 4.2 82.0 1000.6 0.0 SW 0.0 0.0
18:45 4.3 82.0 1000.7 0.0 SW 0.0 0.0
18:50 4.3 81.0 1000.6 0.0 SW 0.0 0.0
18:55 4.3 81.0 1000.8 0.0 SW 0.0 0.0
19:00 4.3 81.0 1000.9 0.0 SW 1.6 0.0
19:05 4.3 80.0 1000.8 0.0 SW 1.6 0.0
19:10 4.4 80.0 1000.7 6.4 SSW 11.3 0.0
19:15 4.4 80.0 1000.8 0.0 WSW 11.3 0.0
19:20 4.4 79.0 1000.9 0.0 WSW 3.2 0.0
19:25 4.3 80.0 1000.9 0.0 WSW 0.0 0.0
19:30 4.3 80.0 1001.0 0.0 WSW 0.0 0.0
19:35 4.1 80.0 1001.1 0.0 ESE 3.2 0.0
19:40 3.9 81.0 1001.1 0.0 ESE 0.0 0.0
19:45 3.8 81.0 1001.2 0.0 ESE 0.0 0.0
19:50 3.7 82.0 1001.2 0.0 ESE 0.0 0.0
19:55 3.7 82.0 1001.2 0.0 ESE 0.0 0.0
20:00 3.6 82.0 1001.4 0.0 S 0.0 0.0
20:05 3.6 82.0 1001.4 0.0 SW 4.8 0.0
20:10 3.4 82.0 1001.4 0.0 E 9.7 0.0
Màxima 10.2 91.0 1002.8 11.3 WSW 19.3 0.0
Mínima -0.4 69.0 997.3
Total 0.0